Flag for Germany Weather past 2 weeks in Porta Westfalica, North Rhine-Westphalia, Germany

55 °F

Drizzle. Fog.

Feels Like: 55 °F
Forecast: 41 / 51 °F
Wind: 5 mph from North

Location: Bueckeburg

Current Time: Oct 9, 2015 at 7:29:59 AM

Latest Report: Oct 9, 2015 at 6:20 AM

Visibility: 2 mi

Pressure: 30.12 "Hg

Humidity: 100%

Dew point: 55 °F

Location of Porta WestfalicaLocation

Historic Weather in Porta Westfalica — Graph


Porta Westfalica temperature yesterday

Maximum temperature yesterday: 59 °F (at 12:20 AM)
Minimum temperature yesterday: 55 °F (at 9:20 PM)
Average temperature yesterday: 57 °F

Past Weeks' High & Low Weather Summary

High68 °F (Oct 3, 3:20 PM)100% (Sep 25, 5:20 AM)30.69 "Hg (Sep 25, 5:20 AM)
Low36 °F (Oct 2, 6:20 AM)42% (Oct 1, 4:20 PM)29.65 "Hg (Oct 6, 7:49 AM)
Average54 °F84%30.22 "Hg
* Reported Sep 24 6:20 AM — Oct 9 6:20 AM, Porta Westfalica, Weather by CustomWeather, © 2015

Note: Actual official high and low records may vary slightly from our data, if they occured in-between our weather recording intervals... More about our weather records


Porta Westfalica weather history for previous 24 hours

Time TempWeatherWind HumidityBarometerVisibility
6:20 AM
Fri, Oct 9
55 °FDrizzle. Fog.5 mph100%30.12 "Hg2 mi
5:20 AM55 °FDrizzle. Fog.5 mph100%30.12 "Hg2 mi
4:20 AM55 °FDrizzle. Fog.5 mph100%30.12 "Hg2 mi
3:20 AM55 °FDrizzle. Fog.3 mph100%30.12 "Hg2 mi
2:20 AM55 °FDrizzle. Fog.3 mph100%30.12 "Hg2 mi
1:20 AM55 °FPassing clouds.6 mph100%30.12 "Hg5 mi
12:20 AM55 °FPassing clouds.7 mph100%30.15 "Hg4 mi
11:20 PM
Thu, Oct 8
55 °FPassing clouds.6 mph100%30.15 "Hg4 mi
10:20 PM55 °FDrizzle. Fog.2 mph100%30.12 "Hg3 mi
9:20 PM55 °FDrizzle. Fog.3 mph100%30.12 "Hg3 mi
8:20 PM57 °FDrizzle. Fog.8 mph94%30.12 "Hg2 mi
7:47 PM57 °FDrizzle. Fog.6 mph100%30.12 "Hg2 mi
7:20 PM57 °FDrizzle. Fog.2 mph94%30.12 "Hg1 mi
7:02 PM57 °FRain. Fog.2 mph94%30.12 "Hg2 mi
6:20 PM57 °FDrizzle. Fog.3 mph94%30.09 "Hg3 mi
5:20 PM57 °FDrizzle. Partly sunny.3 mph94%30.09 "Hg6 mi
4:20 PM59 °FLight rain. Partly sunny.6 mph88%30.09 "Hg6 mi
3:20 PM57 °FPartly sunny.7 mph88%30.09 "Hg6 mi
2:20 PM57 °FPartly sunny.7 mph88%30.09 "HgN/A
1:20 PM57 °FPartly sunny.8 mph88%30.09 "Hg5 mi
12:49 PM57 °FPartly sunny.8 mph88%30.09 "Hg5 mi
12:20 PM57 °FPartly sunny.8 mph88%30.07 "Hg4 mi
11:20 AM57 °FFog.7 mph88%30.07 "Hg3 mi
10:20 AM57 °FDrizzle. Fog.7 mph88%30.07 "Hg3 mi
9:20 AM57 °FMore clouds than sun.6 mph88%30.04 "Hg4 mi
8:20 AM57 °FFog.6 mph88%30.04 "Hg3 mi
7:20 AM57 °FFog.5 mph88%30.01 "Hg3 mi
Weather by CustomWeather, © 2015

See weather overviewHow to use our weather pages